GEOSCAN 2 (RS92S2)

Last updated on Mon Sep 21 2026 00:03:15 GMT+0000 (Coordinated Universal Time)

1 64890U 25155Q 26263.60961478 .00008416 00000+0 26805-3 0 9997 2 64890 97.4667 233.1369 0006947 166.2642 193.8790 15.32792682 95396
UTC large
Height (km)
Speed (km/s)
/
Latitude / Longitude
Inclination (degrees)
Orbital Period (minutes)
Azimuth
Elevation
Range (km)
Doppler Factor

Next 0 passes for location: London (51.5072 / 0.1276)

No passes found over London.
GEOSCAN 2 (RS92S2)